sat.trackr.live / text

‹ back to catalog

STARLINK-31921

NORAD 59868 · 2024-098L

PAYLOAD ACTIVE UNKNOWN

§ Identity

Operator
Country
US
Launch date
2024-05-24
Launch site
AFETR
Launch vehicle
Mass (kg)
RCS (m²)

Purposes: comms

External: N2YO · Heavens-Above · Gunter

§ Orbital elements

Epoch: 2026-05-25T01:48:51.223104Z

Period
94.27 min
Inclination
43.0008°
Eccentricity
0.0001059
Mean motion
15.27576279 rev/d
Perigee alt
482.3 km
Apogee alt
483.8 km
Semi-major
6,861.2 km
B*
2.0343e-6
RAAN
166.2526°
Arg perigee
269.6711°
Mean anomaly
90.4019°
Rev number
11,398

§ Raw data

STARLINK-319211 59868U 24098L   26145.07559286 -.00000206  00000+0  20343-5 0  99942 59868  43.0008 166.2526 0001059 269.6711  90.4019 15.27576279113984

JSON: /api/v1/satellites/59868 · /tle

For live sub-satellite position, see the globe view (requires WebGL).

§ Visibility from observer

Set your observer location to see the next 7 days of passes ≥ 10°. The values pass through the URL so the page stays shareable.

No JS? Fill the form by hand. The geolocation button needs JavaScript.